[[{"header":{"parameterUnit":"m.s-1","parameterCategory":1,"la1":30.2991,"la2":30.254,"lo1":-89.0895,"lo2":-89.0444,"dy":0.0017,"dx":0.0017,"nx":28,"ny":28,"refTime":"2023-09-17T09:00:00:Z","depth":0,"parameterNumber":2,"parameterNumberName":"U-component_of_WINDS"},"data":[0,0,0,0,0,0,0,0,0,0,0,0,0,0,0,0,0,0,0,0,0,0,0,0,0,0,0,0,0,0,0,0,0,0,0,0,0,0,0,0,0,0,0,0,0,0,0,0,0,0,0,0,0,0,0,0,0,0,1.675,1.675,0,1.6796,1.6797,1.6797,1.6771,1.677,1.6768,1.6767,1.6818,1.682,1.6823,0,0,0,0,0,0,0,0,0,0,0,0,0,1.6642,1.6644,1.675,1.675,1.6751,1.6796,1.6797,1.6798,1.6771,1.677,1.6768,1.6766,1.6817,1.682,1.6823,0,0,0,0,0,0,0,0,0,0,0,0,0,1.6689,1.6645,1.675,1.6743,1.6743,1.6796,1.6797,1.6798,1.6772,1.677,1.6768,1.6766,1.6816,1.682,1.6823,1.6886,0,0,1.6835,1.6837,0,0,0,0,0,0,0,0,1.6686,1.6693,1.6744,1.6744,1.6744,1.6776,1.6777,1.6828,1.6772,1.6761,1.6767,1.6765,1.6806,1.681,1.6823,1.6889,1.6891,1.6835,1.6838,1.6839,1.6841,0,0,0,0,0,0,0,1.6683,1.6691,1.6768,1.6744,1.6744,1.6739,1.6744,1.6787,1.6794,1.6762,1.676,1.6766,1.6805,1.682,1.6824,1.6892,1.6835,1.6839,1.6841,1.6843,1.7014,1.7016,0,0,0,0,0,0,1.668,1.6688,1.6767,1.677,1.6709,1.6743,1.6748,1.6768,1.6793,1.6795,1.6767,1.6764,1.6814,1.682,1.6826,1.6902,1.6839,1.6843,1.6845,1.7011,1.7014,1.7017,0,0,0,0,0,0,1.6677,1.6687,1.6765,1.6728,1.6738,1.6747,1.6769,1.6769,1.6784,1.6797,1.6799,1.678,1.6813,1.682,1.6872,1.6904,1.6845,1.6848,1.7009,1.7012,1.7015,1.7055,0,0,0,0,0,0,1.6674,1.6686,1.6709,1.6729,1.674,1.6809,1.6771,1.6772,1.679,1.6787,1.681,1.6812,1.6812,1.6866,1.6876,1.6908,1.6851,1.7006,1.701,1.7014,1.7051,1.7059,1.7067,0,0,0,0,0,1.6671,1.6719,1.671,1.672,1.6769,1.6811,1.6817,1.6815,1.6793,1.6817,1.6826,1.6811,1.6899,1.6872,1.6882,1.6916,1.7004,1.7009,1.7014,1.7048,1.7058,1.7066,0,0,0,0,0,0,1.6703,1.6721,1.6712,1.6768,1.6788,1.6806,1.6836,1.6826,1.6853,1.6848,1.6846,1.6851,1.6905,1.6916,1.6885,1.698,1.6948,1.6956,1.697,1.698,1.6988,1.6984,1.6855,0,0,0,0,0,1.6716,1.6748,1.6763,1.681,1.6821,1.6827,1.6845,1.6842,1.6863,1.6871,1.6884,1.6906,1.6939,1.696,1.6991,1.7053,1.7058,1.7082,1.7089,1.7096,1.7102,1.7138,1.7148,1.7033,1.7033,1.7033,0,0,1.6744,1.6758,1.6778,1.6817,1.6832,1.6866,1.6834,1.6871,1.6897,1.6877,1.6926,1.6937,1.6961,1.7019,1.7045,1.7029,1.7135,1.7102,1.7107,1.711,1.7144,1.7155,1.7164,1.7036,1.7036,1.7035,0,0,1.6813,1.6826,1.6868,1.6884,1.6908,1.6912,1.6922,1.6942,1.6948,1.6997,1.6984,1.7015,1.7071,1.709,1.7106,1.7185,1.7173,1.7195,1.7236,1.727,1.7279,1.7287,1.7316,1.7326,1.7201,1.7201,1.7201,0,1.6845,1.6895,1.6891,1.693,1.6948,1.6932,1.6975,1.6991,1.7024,1.7038,1.702,1.7091,1.7106,1.7168,1.7187,1.7201,1.7214,1.7192,1.7278,1.7286,1.7293,1.7321,1.7332,1.7204,1.7204,1.7203,1.7203,0,1.6934,1.6969,1.7,1.7032,1.7053,1.7094,1.7098,1.7121,1.7117,1.7123,1.7175,1.7193,1.7228,1.7242,1.7238,1.7305,1.7295,1.7278,1.7246,1.7307,1.7333,1.7343,1.7207,1.7207,1.7206,1.7205,0,0,1.7022,1.7053,1.7064,1.7079,1.7105,1.7132,1.7173,1.7207,1.7227,1.7251,1.7286,1.7335,1.7319,1.7338,1.7337,1.7367,1.743,1.7347,1.7347,1.7362,1.7505,1.7518,1.753,1.7422,1.7424,1.7426,1.7503,0,1.7093,1.7163,1.7163,1.7229,1.7262,1.7248,1.7284,1.7305,1.7313,1.7343,1.7352,1.7387,1.7364,1.7375,1.7405,1.7416,1.7458,1.741,1.7456,1.7458,1.745,1.7543,1.7556,1.7629,1.7513,1.7515,1.7516,0,1.7184,1.7211,1.728,1.7302,1.7316,1.7349,1.738,1.7409,1.7433,1.7436,1.7459,1.7453,1.7497,1.7464,1.7525,1.7493,1.7512,1.752,1.7523,1.7527,1.7491,1.755,1.7651,1.7662,1.7532,1.7531,1.753,0,1.7243,1.7296,1.7345,1.7358,1.7385,1.7408,1.7421,1.7443,1.7463,1.7492,1.7505,1.7538,1.7557,1.7583,1.7588,1.7563,1.765,1.7617,1.7655,1.7655,1.7673,1.7672,1.7779,1.7686,1.7685,1.7685,1.7685,0,1.7322,1.7365,1.7372,1.7401,1.745,1.745,1.7498,1.7509,1.7529,1.7562,1.7553,1.7584,1.7587,1.762,1.7624,1.7675,1.7683,1.7689,1.7689,1.7689,1.7689,1.7702,1.7697,1.7688,1.7687,1.7687,1.7686,0,1.7395,1.7401,1.7453,1.7475,1.7482,1.7517,1.7536,1.7565,1.7573,1.7615,1.7625,1.7637,1.7675,1.7682,1.7728,1.773,1.7791,1.7787,1.7783,1.7782,1.782,1.7816,1.7939,1.7956,1.7851,1.7852,1.7853,0,1.7445,1.7478,1.7503,1.7525,1.7538,1.7572,1.7594,1.7595,1.7618,1.7649,1.7675,1.7713,1.7742,1.7805,1.7819,1.7854,1.7851,1.7891,1.7856,1.7856,1.7852,1.785,1.7854,1.7898,1.7899,1.79,1.7901,0,1.7533,1.7535,1.7566,1.7598,1.7624,1.7649,1.7674,1.7692,1.7697,1.7723,1.7762,1.7786,1.7832,1.787,1.7906,1.792,1.7912,1.7912,1.7923,1.7923,1.792,1.7923,1.7802,1.7909,1.7908,1.7908,1.7907,1.7907,1.7597,1.7626,1.7649,1.7684,1.7702,1.7726,1.7755,1.7766,1.7798,1.7836,1.7836,1.7879,1.7904,1.7951,1.7968,1.8003,1.799,1.8005,1.8009,1.8013,1.8017,1.7915,1.8009,1.8009,1.8009,1.8008,1.8008,0,1.7685,1.77,1.7732,1.7766,1.7794,1.7784,1.7811,1.7835,1.7873,1.7896,1.7926,1.7972,1.8009,1.8027,1.8064,1.8088,1.8086,1.8098,1.8096,1.81,1.8026,1.8013,1.81,1.81,1.81,1.81,1.81,1.81,1.7735,1.7784,1.7789,1.7848,1.7862,1.7904,1.792,1.7942,1.7961,1.8013,1.8043,1.8054,1.8076,1.8115,1.8149,1.8153,1.8168,1.8182,1.8185,1.8115,1.8105,1.8096,1.8084,1.8185,1.8185,1.8256,1.8257,1.8258]},{"header":{"parameterUnit":"m.s-1","parameterCategory":1,"la1":30.2991,"la2":30.254,"lo1":-89.0895,"lo2":-89.0444,"dy":0.0017,"dx":0.0017,"nx":28,"ny":28,"refTime":"2023-09-17T09:00:00:Z","depth":0,"parameterNumber":3,"parameterNumberName":"V-component_of_WINDS"},"data":[0,0,0,0,0,0,0,0,0,0,0,0,0,0,0,0,0,0,0,0,0,0,0,0,0,0,0,0,0,0,0,0,0,0,0,0,0,0,0,0,0,0,0,0,0,0,0,0,0,0,0,0,0,0,0,0,0,0,-0.868,-0.8679,0,-0.8581,-0.858,-0.8578,-0.8556,-0.8557,-0.8557,-0.8558,-0.8448,-0.8444,-0.8441,0,0,0,0,0,0,0,0,0,0,0,0,0,-0.884,-0.8837,-0.868,-0.8679,-0.8678,-0.8581,-0.858,-0.8578,-0.8556,-0.8557,-0.8557,-0.8558,-0.8449,-0.8445,-0.844,0,0,0,0,0,0,0,0,0,0,0,0,0,-0.8759,-0.8836,-0.8681,-0.8655,-0.8652,-0.8581,-0.8579,-0.8578,-0.8556,-0.8557,-0.8558,-0.8559,-0.845,-0.8445,-0.844,-0.8385,0,0,-0.8423,-0.8421,0,0,0,0,0,0,0,0,-0.8763,-0.8753,-0.866,-0.8657,-0.8653,-0.8582,-0.8595,-0.8513,-0.8555,-0.8592,-0.8558,-0.8559,-0.8491,-0.8482,-0.8461,-0.838,-0.8375,-0.8423,-0.842,-0.8417,-0.8416,0,0,0,0,0,0,0,-0.8769,-0.8757,-0.8641,-0.8659,-0.8654,-0.8645,-0.8635,-0.858,-0.8536,-0.8589,-0.8587,-0.8576,-0.8489,-0.8466,-0.8458,-0.8373,-0.8423,-0.8418,-0.8415,-0.8413,-0.8236,-0.8234,0,0,0,0,0,0,-0.878,-0.8762,-0.8644,-0.8638,-0.8712,-0.8641,-0.863,-0.8604,-0.8537,-0.8528,-0.8575,-0.8575,-0.8475,-0.8465,-0.8454,-0.8382,-0.8417,-0.8412,-0.8409,-0.8237,-0.8235,-0.8234,0,0,0,0,0,0,-0.8784,-0.877,-0.8648,-0.8699,-0.8683,-0.8638,-0.8608,-0.8601,-0.8578,-0.8527,-0.8518,-0.856,-0.8475,-0.8462,-0.8402,-0.8378,-0.841,-0.8405,-0.8239,-0.8236,-0.8234,-0.824,0,0,0,0,0,0,-0.8789,-0.8772,-0.8753,-0.8699,-0.868,-0.86,-0.8607,-0.8598,-0.857,-0.8569,-0.8511,-0.8502,-0.8475,-0.841,-0.8396,-0.8371,-0.8401,-0.8241,-0.8238,-0.8235,-0.8241,-0.8238,-0.8235,0,0,0,0,0,-0.8794,-0.8758,-0.8752,-0.8738,-0.8657,-0.8599,-0.8588,-0.8561,-0.8568,-0.8547,-0.8513,-0.8504,-0.8383,-0.8404,-0.8388,-0.8361,-0.8242,-0.8238,-0.8235,-0.8243,-0.8238,-0.8235,0,0,0,0,0,0,-0.8809,-0.875,-0.8744,-0.8689,-0.865,-0.8596,-0.8569,-0.8558,-0.8513,-0.8514,-0.8479,-0.8466,-0.8407,-0.8378,-0.8402,-0.8302,-0.8312,-0.8306,-0.8323,-0.8319,-0.8315,-0.8323,-0.8396,0,0,0,0,0,-0.8806,-0.8767,-0.8717,-0.8673,-0.8654,-0.8615,-0.8589,-0.8571,-0.8527,-0.8509,-0.8471,-0.8426,-0.8378,-0.8347,-0.83,-0.8237,-0.8221,-0.821,-0.8207,-0.8204,-0.8199,-0.8158,-0.8152,-0.8223,-0.8223,-0.8223,0,0,-0.8799,-0.8762,-0.874,-0.8675,-0.8643,-0.8599,-0.8601,-0.8556,-0.8522,-0.8502,-0.8442,-0.8412,-0.8359,-0.8297,-0.8267,-0.8271,-0.8175,-0.82,-0.8199,-0.8194,-0.8154,-0.8147,-0.8141,-0.8221,-0.8221,-0.8221,0,0,-0.8764,-0.8734,-0.8693,-0.866,-0.861,-0.8583,-0.8573,-0.852,-0.85,-0.844,-0.8422,-0.838,-0.8298,-0.826,-0.823,-0.8176,-0.8163,-0.8161,-0.8144,-0.8105,-0.8099,-0.8094,-0.8071,-0.8064,-0.8156,-0.8156,-0.8156,0,-0.8761,-0.8699,-0.8672,-0.8628,-0.8597,-0.8578,-0.8533,-0.8501,-0.8438,-0.8416,-0.8421,-0.8316,-0.8279,-0.8205,-0.8192,-0.8169,-0.8152,-0.8168,-0.8103,-0.8097,-0.8092,-0.807,-0.8061,-0.8156,-0.8156,-0.8156,-0.8156,0,-0.8695,-0.8652,-0.8624,-0.8564,-0.8531,-0.8487,-0.8449,-0.8418,-0.8402,-0.8373,-0.8309,-0.8264,-0.8206,-0.8187,-0.8171,-0.8108,-0.8112,-0.8111,-0.812,-0.8086,-0.8064,-0.8055,-0.8155,-0.8155,-0.8156,-0.8156,0,0,-0.8669,-0.8594,-0.8583,-0.8554,-0.8496,-0.846,-0.8412,-0.8356,-0.8328,-0.8284,-0.824,-0.8169,-0.8167,-0.8132,-0.8111,-0.8077,-0.8032,-0.8079,-0.8077,-0.8069,-0.7955,-0.7955,-0.7946,-0.8023,-0.8022,-0.802,-0.7958,0,-0.8625,-0.8543,-0.8515,-0.8445,-0.8401,-0.838,-0.8337,-0.8294,-0.8265,-0.822,-0.8187,-0.8136,-0.8139,-0.8117,-0.8083,-0.8045,-0.8008,-0.8049,-0.7978,-0.7976,-0.799,-0.7935,-0.7936,-0.788,-0.795,-0.7949,-0.7948,0,-0.8564,-0.8519,-0.8445,-0.8388,-0.8369,-0.8332,-0.8276,-0.8236,-0.8184,-0.8165,-0.8125,-0.8105,-0.8049,-0.8062,-0.7981,-0.801,-0.7978,-0.7955,-0.7952,-0.7943,-0.7959,-0.7922,-0.7862,-0.7853,-0.7935,-0.7936,-0.7937,0,-0.8548,-0.847,-0.8414,-0.839,-0.8323,-0.8297,-0.8267,-0.8217,-0.8184,-0.8134,-0.8111,-0.8055,-0.8023,-0.7978,-0.7941,-0.7955,-0.7862,-0.7873,-0.784,-0.7841,-0.7821,-0.7823,-0.7753,-0.7804,-0.7805,-0.7805,-0.7805,0,-0.8501,-0.8456,-0.8406,-0.8371,-0.8317,-0.8284,-0.8231,-0.8199,-0.8154,-0.811,-0.8087,-0.8045,-0.8,-0.7951,-0.7921,-0.7856,-0.7843,-0.7822,-0.7814,-0.7823,-0.7825,-0.7801,-0.7803,-0.7802,-0.7803,-0.7803,-0.7804,0,-0.8475,-0.8441,-0.8378,-0.8319,-0.8303,-0.8266,-0.8213,-0.8176,-0.8145,-0.8089,-0.8073,-0.8023,-0.7963,-0.7922,-0.7845,-0.7825,-0.7753,-0.7748,-0.7772,-0.7768,-0.7736,-0.7738,-0.7646,-0.7631,-0.7695,-0.7695,-0.7694,0,-0.8447,-0.8412,-0.8349,-0.8319,-0.8289,-0.8241,-0.8207,-0.8171,-0.8135,-0.8071,-0.8041,-0.798,-0.7929,-0.7834,-0.7788,-0.7727,-0.7718,-0.7689,-0.7708,-0.7717,-0.7713,-0.7715,-0.7709,-0.7686,-0.7686,-0.7685,-0.7685,0,-0.84,-0.8383,-0.8337,-0.8282,-0.8242,-0.8197,-0.8152,-0.8127,-0.8082,-0.8042,-0.7982,-0.7943,-0.7863,-0.7801,-0.7736,-0.77,-0.7683,-0.7679,-0.7668,-0.7676,-0.769,-0.7678,-0.7761,-0.7682,-0.7682,-0.7682,-0.7682,-0.7683,-0.837,-0.8335,-0.8285,-0.8232,-0.8194,-0.8151,-0.8112,-0.8076,-0.8026,-0.796,-0.794,-0.7876,-0.782,-0.773,-0.7694,-0.764,-0.7642,-0.7626,-0.7622,-0.7618,-0.7616,-0.77,-0.7628,-0.7628,-0.7628,-0.7628,-0.7628,0,-0.8319,-0.8284,-0.8236,-0.8173,-0.813,-0.812,-0.8068,-0.8031,-0.7976,-0.7927,-0.7877,-0.7804,-0.7743,-0.7691,-0.7626,-0.7592,-0.7582,-0.7576,-0.7577,-0.7568,-0.762,-0.7635,-0.7585,-0.7585,-0.7585,-0.7585,-0.7585,-0.7585,-0.8287,-0.8227,-0.8204,-0.8123,-0.8088,-0.8027,-0.7997,-0.7955,-0.7915,-0.7836,-0.7785,-0.7753,-0.77,-0.763,-0.7572,-0.7557,-0.7533,-0.7528,-0.7512,-0.756,-0.7565,-0.757,-0.7584,-0.7524,-0.7524,-0.7464,-0.7463,-0.7463]}]]